sat.trackr.live / text

‹ back to catalog

DEMO8 (TENZING)

NORAD 48951 · 2021-059CA

PAYLOAD ACTIVE UNKNOWN

§ Identity

Operator
Country
US
Launch date
2021-06-30
Launch site
AFETR
Launch vehicle
Mass (kg)
RCS (m²)

External: N2YO · Heavens-Above · Gunter

§ Orbital elements

Epoch: 2026-09-19T19:07:31.287360Z

Period
92.40 min
Inclination
97.6965°
Eccentricity
0.0006291
Mean motion
15.58434612 rev/d
Perigee alt
387.9 km
Apogee alt
396.4 km
Semi-major
6,770.3 km
B*
2.3106e-4
RAAN
103.6600°
Arg perigee
10.6352°
Mean anomaly
349.5035°
Rev number
29,202

§ Raw data

DEMO8 (TENZING)1 48951U 21059CA  26262.79688990  .00017504  00000+0  23106-3 0  99992 48951  97.6965 103.6600 0006291  10.6352 349.5035 15.58434612292025

JSON: /api/v1/satellites/48951 · /tle

For live sub-satellite position, see the globe view (requires WebGL).

§ Visibility from observer

Set your observer location to see the next 7 days of passes ≥ 10°. The values pass through the URL so the page stays shareable.

No JS? Fill the form by hand. The geolocation button needs JavaScript.

§ Radio — SatNOGS DB

ModeDescriptionDownlinkUplink
FM Mode U 400.502 MHz
FM Mode U - FM 400.500 MHz

2 transmitters · refreshed weekly from db.satnogs.org